Starlink 3207

operational
NORAD ID: 49756 Int'l Des: 2021-115 Owner: SPXS Country: US Constellation: starlink
LEOCIRCULAR

关于 Starlink 3207

正在加载描述...

实时位置

正在加载3D地球...

即将过境

高度历史

Altitude vs Time

uPlot chart will show altitude changes over time

两行轨道根数

1 49756U 21115AJ 26035.83200787 .00001669 00000-0 12299-3 0 9990
2 49756 53.2172 286.6268 0001483 75.2691 284.8466 15.08826736230714
Epoch: Feb 4, 2026 • Age: 8 hours

当前状态

高度 545.4 km
速度 7.60 km/s
星下点 53.30°N, 178.98°E
发射日期 Dec 2, 2021
运行时间 4.1 years
类型 internet

技术详情

分类 Payload
质量 290.00 kg
干质量 270.00 kg
总质量 290.00 kg
长度 0.20 m
直径 2.80 m
跨度 9.00 m
形状 Box + pan
制造商 SPXS
平台类型 Starlink
阶段状态 In Orbit
所有者/国家 SPXS/US

大型星座

Loading constellations...